Temperature
-1 -0 -0 -1 -1 -2 -2 -1 -1 -0 -0 -0 -1 -2 -2 -2 -2 -3 -3 -3 -4 -4 -4 -3 -3 -3 -3 -3 -3 -3 -2 -2 -2 -2 -2 -2 -2 -2 -2 -2 -2 -2 -2 -2
-2 -1 -1 -1 -1 -2 -2 -2 -2 -2 -2 -2 -1 -2 -2 -3 -3 -3 -4 -4 -4 -4 -4 -4 -4 -4 -4 -4 -4 -4 -3 -3 -3 -3 -3 -3 -3 -3 -3 -3 -3 -3 -3 -3
-1 -2 -2 -2 -2 -2 -3 -3 -3 -2 -2 -2 -3 -3 -3 -3 -4 -4 -4 -5 -5 -5 -5 -5 -5 -5 -5 -5 -5 -4 -4 -4 -4 -4 -3 -3 -3 -3 -3 -3 -3 -3 -3 -3
-2 -2 -2 -1 -2 -3 -3 -4 -4 -4 -3 -4 -4 -3 -4 -4 -4 -5 -5 -5 -5 -5 -5 -5 -5 -5 -5 -5 -5 -5 -5 -5 -5 -5 -4 -4 -4 -4 -4 -4 -4 -4 -4 -4
-2 -2 -2 -1 -3 -4 -4 -4 -5 -4 -5 -4 -4 -4 -4 -4 -5 -5 -5 -5 -5 -6 -6 -6 -6 -6 -6 -6 -6 -6 -6 -6 -5 -5 -5 -5 -5 -5 -5 -5 -5 -5 -5 -5
-2 -2 -2 -2 -4 -4 -4 -4 -5 -5 -5 -5 -5 -5 -5 -5 -5 -6 -6 -6 -6 -6 -6 -6 -6 -6 -6 -6 -6 -6 -6 -6 -6 -6 -6 -6 -6 -6 -6 -6 -6 -6 -6 -5
-3 -3 -3 -4 -5 -4 -4 -4 -5 -5 -5 -6 -6 -6 -6 -6 -6 -6 -6 -6 -6 -7 -7 -7 -7 -7 -7 -7 -7 -7 -7 -7 -7 -7 -7 -6 -6 -6 -6 -6 -6 -6 -6 -6
-4 -3 -4 -6 -6 -5 -5 -5 -5 -5 -5 -6 -6 -7 -7 -7 -7 -7 -7 -7 -7 -7 -7 -7 -8 -8 -8 -8 -8 -8 -8 -8 -7 -7 -7 -7 -7 -7 -7 -7 -7 -7 -7 -7
-4 -4 -5 -5 -5 -5 -5 -6 -6 -6 -6 -7 -7 -7 -7 -8 -7 -8 -8 -8 -8 -8 -8 -8 -8 -8 -8 -8 -8 -8 -8 -8 -8 -8 -8 -8 -8 -8 -8 -8 -8 -8 -8 -8
-6 -6 -5 -5 -6 -6 -6 -6 -6 -6 -7 -7 -7 -8 -8 -8 -8 -8 -8 -8 -9 -9 -8 -8 -9 -9 -9 -9 -9 -9 -9 -9 -9 -9 -9 -9 -9 -9 -9 -9 -9 -9 -9 -9
-7 -7 -6 -6 -6 -6 -6 -7 -7 -7 -7 -7 -8 -8 -8 -8 -8 -9 -9 -9 -9 -9 -9 -9 -9 -9 -9 -9 -9 -9 -9 -9 -9 -9 -9 -9 -9 -9 -9 -9 -9 -9 -9 -9
-6 -7 -7 -6 -6 -6 -7 -7 -7 -8 -8 -8 -8 -8 -9 -9 -9 -9 -9 -9 -9 -9 -10 -9 -10 -10 -10 -10 -10 -10 -10 -10 -10 -10 -10 -10 -10 -10 -10 -10 -10 -10 -10 -10
-6 -7 -7 -7 -7 -7 -7 -7 -8 -8 -8 -8 -8 -9 -9 -9 -9 -10 -10 -10 -10 -10 -10 -10 -10 -10 -10 -10 -10 -10 -10 -10 -10 -10 -10 -11 -11 -11 -11 -10 -10 -10 -10 -11
-7 -7 -8 -8 -8 -8 -8 -8 -8 -8 -8 -9 -9 -9 -9 -10 -10 -10 -10 -10 -10 -10 -11 -11 -11 -11 -11 -11 -11 -11 -11 -11 -11 -11 -11 -11 -11 -11 -11 -11 -11 -11 -11 -11
-8 -8 -8 -8 -9 -9 -8 -9 -9 -9 -9 -9 -9 -10 -10 -10 -10 -10 -10 -11 -11 -11 -11 -11 -11 -11 -11 -11 -11 -11 -11 -11 -11 -11 -11 -12 -12 -12 -12 -12 -12 -12 -12 -11
-9 -9 -9 -9 -9 -9 -9 -9 -9 -9 -10 -10 -10 -10 -10 -11 -11 -11 -11 -11 -11 -11 -11 -11 -11 -11 -11 -12 -12 -12 -12 -12 -12 -12 -12 -12 -12 -12 -12 -12 -12 -12 -12 -12
-10 -10 -10 -10 -10 -10 -10 -10 -10 -10 -10 -10 -11 -11 -11 -11 -11 -11 -11 -12 -12 -12 -12 -12 -12 -12 -12 -12 -12 -12 -12 -12 -12 -12 -12 -12 -12 -12 -12 -13 -13 -13 -13 -12
-10 -10 -10 -10 -10 -10 -10 -11 -11 -11 -11 -11 -11 -11 -11 -11 -12 -12 -12 -12 -12 -12 -12 -12 -13 -13 -13 -13 -13 -13 -13 -13 -13 -13 -13 -13 -13 -13 -13 -13 -13 -13 -13 -13
-10 -10 -10 -10 -10 -11 -11 -11 -11 -11 -11 -11 -12 -12 -12 -12 -12 -12 -13 -13 -13 -13 -13 -13 -13 -13 -13 -13 -13 -13 -13 -13 -13 -13 -13 -13 -13 -13 -13 -13 -13 -13 -13 -13
-10 -10 -10 -11 -11 -11 -11 -11 -11 -12 -12 -12 -12 -12 -12 -13 -13 -13 -13 -13 -13 -14 -14 -14 -14 -14 -14 -14 -14 -14 -14 -14 -14 -13 -13 -14 -14 -14 -14 -14 -14 -13 -13 -13
-11 -11 -11 -11 -11 -11 -12 -12 -12 -12 -12 -12 -13 -13 -13 -13 -13 -14 -14 -14 -14 -14 -14 -14 -14 -14 -14 -14 -14 -14 -14 -14 -14 -14 -14 -14 -14 -14 -14 -14 -14 -14 -14 -14
-12 -12 -12 -12 -12 -12 -12 -12 -12 -12 -13 -13 -13 -13 -14 -14 -14 -14 -14 -14 -14 -15 -15 -15 -15 -15 -15 -15 -15 -15 -14 -14 -14 -14 -14 -14 -15 -15 -15 -14 -14 -14 -14 -14
-12 -12 -12 -12 -13 -13 -13 -13 -13 -13 -13 -13 -14 -14 -14 -14 -15 -15 -15 -15 -15 -15 -15 -15 -15 -15 -15 -15 -15 -15 -15 -15 -15 -15 -15 -15 -15 -15 -15 -15 -15 -15 -14 -14
-12 -13 -13 -13 -13 -13 -13 -13 -14 -14 -14 -14 -14 -15 -15 -15 -15 -15 -15 -15 -15 -16 -16 -15 -16 -16 -15 -15 -15 -15 -15 -15 -15 -15 -15 -15 -15 -15 -15 -15 -15 -15 -15 -14
-13 -13 -13 -13 -14 -14 -14 -14 -14 -14 -14 -15 -15 -15 -15 -15 -15 -15 -16 -16 -16 -16 -16 -16 -16 -16 -16 -16 -16 -16 -16 -16 -16 -16 -16 -16 -15 -15 -15 -15 -15 -15 -15 -15
-13 -14 -14 -14 -14 -14 -14 -15 -15 -15 -15 -15 -15 -15 -16 -16 -16 -16 -16 -16 -16 -16 -16 -16 -16 -16 -16 -16 -16 -16 -16 -16 -16 -16 -16 -16 -16 -16 -16 -15 -15 -15 -15 -15
-14 -14 -14 -14 -15 -15 -15 -15 -15 -15 -16 -16 -16 -16 -16 -16 -16 -16 -16 -16 -16 -16 -16 -16 -16 -16 -16 -16 -16 -16 -16 -16 -16 -16 -16 -16 -16 -16 -16 -16 -16 -15 -15 -15
Wind_Speed
5 5 3 5 5 5 7 7 6 7 7 5 2 1 1 1 1 2 2 3 3 3 4 4 4 4 4 4 4 3 3 3 3 2 2 2 2 2 2 2 3 3 3 4
5 4 4 7 7 8 8 7 8 8 9 4 2 1 1 1 1 2 3 3 3 4 4 4 5 5 4 4 4 3 3 3 3 3 2 2 2 2 1 2 2 3 3 4
4 2 4 7 7 7 5 5 5 8 8 2 3 3 2 2 2 2 3 3 3 4 4 4 4 4 4 4 4 3 3 3 3 3 2 3 3 2 2 2 2 3 3 3
2 2 5 5 1 3 4 4 4 4 3 2 3 3 2 1 1 3 3 3 3 4 4 4 4 4 4 4 4 4 3 4 3 3 3 3 3 3 3 2 3 3 3 3
2 4 6 2 1 2 3 4 3 5 5 4 3 3 2 2 2 2 2 3 3 3 3 4 4 4 4 4 4 4 4 4 4 3 2 3 3 3 3 2 3 3 3 3
3 4 5 3 1 1 1 3 2 2 3 2 2 2 3 4 4 4 3 3 3 3 3 4 4 4 4 4 4 4 5 4 4 3 3 3 3 3 3 3 3 3 4 3
5 5 5 2 1 1 2 5 2 1 1 1 2 3 3 3 4 4 3 4 3 3 3 4 4 4 4 4 4 5 5 5 5 4 4 3 3 3 3 3 3 3 4 3
3 5 6 1 2 3 3 2 2 1 1 0 1 2 3 3 3 4 4 4 4 3 4 4 4 3 4 4 5 5 5 5 5 4 4 3 3 3 3 3 3 3 3 3
5 5 1 4 3 1 1 1 2 1 1 0 1 2 3 3 3 3 3 3 3 3 4 4 4 3 3 5 5 5 5 5 5 5 4 4 3 3 3 2 2 3 2 3
3 4 2 2 1 0 1 1 2 1 1 1 2 2 2 2 3 3 3 3 3 3 3 4 4 4 4 5 5 4 4 5 4 4 4 4 3 3 2 2 2 3 3 3
4 4 3 2 1 1 2 2 2 2 1 1 1 2 2 2 2 2 3 3 3 3 4 4 4 4 5 5 4 4 4 4 4 4 4 3 3 2 3 2 3 4 3 3
5 3 3 3 1 1 2 2 2 1 2 2 1 2 2 2 2 2 3 3 3 3 4 4 4 4 4 4 4 4 4 4 4 3 3 3 3 3 4 5 7 7 6 6
2 1 2 3 2 1 1 2 2 1 2 2 1 1 1 2 2 2 3 3 3 4 4 4 4 5 5 4 4 4 4 4 4 4 4 4 4 4 4 5 6 6 7 7
1 0 2 1 2 1 1 1 1 1 1 0 0 1 1 2 2 2 3 3 3 3 4 4 4 5 5 4 4 4 4 5 4 3 3 3 4 4 4 4 5 4 6 7
1 1 2 2 1 1 1 1 1 1 1 1 1 1 1 2 3 3 3 4 4 4 4 4 4 5 5 4 5 5 4 3 3 3 3 3 4 4 4 4 4 4 4 5
2 1 2 2 2 2 1 1 1 2 1 2 2 2 2 2 3 3 3 3 3 4 4 4 4 5 5 4 4 4 4 6 5 4 3 3 3 3 4 4 4 4 4 4
1 2 2 3 3 3 2 2 2 2 2 2 2 2 3 3 3 3 4 3 3 4 5 4 5 5 5 4 4 3 3 4 6 4 3 3 3 4 4 4 4 4 4 5
3 3 3 4 3 3 3 2 2 2 2 2 2 2 2 3 4 4 4 4 4 4 5 4 4 4 4 4 3 3 3 3 3 3 3 3 3 3 3 4 4 4 4 5
2 2 2 2 2 2 2 2 2 2 2 2 2 2 3 3 3 4 3 3 4 5 5 4 7 5 4 5 5 3 3 3 3 3 3 4 4 3 3 4 4 4 4 4
2 2 1 2 1 1 2 2 1 2 2 1 2 3 3 3 3 3 3 4 4 4 4 5 4 4 4 5 5 3 3 3 3 3 3 3 3 4 4 4 4 4 4 4
2 2 2 2 2 2 2 2 2 2 2 2 2 3 4 4 3 3 3 4 4 4 5 6 4 3 4 4 5 3 3 3 3 3 3 3 3 4 4 4 4 4 4 4
2 2 2 2 2 2 2 2 2 2 2 2 3 3 3 3 3 4 4 4 4 6 4 3 3 5 6 6 2 2 3 3 3 3 3 3 3 4 4 4 5 5 4 4
2 2 2 2 2 2 2 2 2 2 2 2 3 3 3 4 3 3 4 3 3 6 5 3 5 8 8 4 2 2 3 3 3 3 3 3 4 4 4 5 5 5 5 5
1 1 2 1 1 1 2 3 2 2 2 3 3 3 3 3 3 3 3 6 7 7 4 6 8 8 7 2 2 3 3 3 4 4 4 4 4 4 4 4 5 5 5 5
1 1 1 1 1 2 2 2 2 2 2 2 3 3 3 2 3 4 3 4 6 7 4 6 8 8 5 3 3 3 3 4 4 4 3 4 4 4 4 4 4 5 5 5
1 1 1 2 2 2 2 2 2 2 2 3 3 3 3 2 3 3 3 3 4 6 5 4 4 5 4 4 4 4 4 5 5 4 4 4 5 5 5 5 6 5 5 6
2 1 1 2 2 2 2 2 2 3 3 3 4 4 3 3 3 3 3 3 4 4 4 4 4 4 4 4 4 4 4 4 4 4 4 4 5 5 5 6 5 6 6 6
Wind_Direction
264 276 264 256 251 222 217 230 238 259 271 279 285 273 301 349 6 23 14 10 7 359 353 352 351 350 351 342 340 338 335 325 309 306 316 310 300 280 269 267 260 249 243 244
267 254 259 271 258 234 235 242 247 265 275 277 287 349 5 342 335 334 336 350 353 349 346 344 341 340 339 333 329 328 322 315 313 315 322 312 300 295 283 260 254 250 240 241
261 275 300 271 244 218 220 220 216 239 255 313 335 331 324 315 315 324 340 343 339 335 334 334 332 331 328 324 326 327 320 316 314 316 319 313 305 304 289 282 271 259 254 246
267 301 250 239 99 171 207 240 236 253 285 307 295 310 321 357 351 336 332 328 329 332 332 331 332 336 332 329 329 323 317 313 312 315 313 312 311 301 295 289 283 280 273 262
236 256 263 255 118 133 202 270 253 253 283 315 332 327 319 3 8 339 327 326 325 331 331 334 334 334 334 332 330 329 319 314 313 311 308 308 303 298 298 295 288 282 281 272
230 244 250 262 14 4 124 279 313 251 275 304 2 301 299 357 1 356 359 357 350 347 345 338 333 339 339 331 337 336 328 322 320 315 308 297 293 294 297 293 290 288 284 279
236 244 259 281 310 68 177 262 323 304 280 182 217 254 309 348 358 2 1 355 353 349 340 332 335 344 338 334 332 325 324 325 321 314 303 292 291 290 287 288 288 287 286 287
214 231 253 155 129 183 234 336 1 354 346 252 283 325 339 347 349 353 356 353 351 346 338 338 346 348 337 328 324 327 326 324 322 320 314 314 308 304 298 293 292 291 289 293
206 221 226 160 187 225 51 330 318 324 323 275 291 299 319 328 335 346 344 342 344 341 335 340 348 345 327 321 326 327 328 326 324 323 323 321 316 312 311 304 293 294 291 291
258 262 252 199 193 316 332 294 304 300 273 246 267 286 311 322 332 338 339 341 341 339 333 332 338 338 326 321 324 326 327 324 324 327 326 326 321 313 307 302 295 294 291 291
249 276 310 255 224 262 297 309 318 333 320 284 268 289 298 308 316 325 334 337 338 332 324 323 329 329 330 331 333 330 323 321 324 324 318 322 322 312 307 288 278 284 279 274
234 231 233 264 285 275 263 273 266 275 305 314 277 272 298 304 313 321 323 328 329 326 324 322 325 326 329 329 329 325 323 327 327 325 324 323 321 319 312 303 303 298 292 289
239 305 267 283 311 303 256 274 270 243 243 277 300 271 286 307 317 324 324 324 320 316 315 318 324 326 330 330 328 323 316 317 317 319 320 320 320 321 321 322 319 314 307 303
229 331 283 282 293 301 291 303 318 336 320 277 306 324 318 312 316 320 316 314 314 316 316 318 321 323 326 329 326 322 317 316 317 311 312 315 316 315 314 316 320 321 317 314
256 227 240 275 300 322 351 24 24 344 347 349 350 335 320 309 304 307 311 317 321 320 320 323 322 322 328 330 325 320 318 315 311 310 313 313 313 313 312 313 313 315 319 321
285 279 263 265 272 284 303 284 259 273 291 303 319 318 313 307 302 307 311 318 320 317 318 317 316 320 326 327 324 321 317 317 319 317 318 317 317 316 315 316 316 317 318 321
225 263 266 269 273 278 272 261 250 256 266 275 289 302 312 318 315 314 314 315 308 305 308 311 313 319 324 321 316 312 311 314 321 322 317 315 315 315 316 316 316 317 313 309
225 233 236 238 246 262 272 271 260 264 268 271 286 297 298 297 296 299 307 316 317 313 310 312 312 317 321 321 312 304 306 310 315 315 313 311 313 315 314 315 316 313 312 314
264 261 262 260 257 258 267 269 268 274 279 277 278 279 279 281 287 295 304 310 306 305 311 314 317 329 324 316 318 308 310 311 312 310 310 310 319 320 315 313 312 311 311 314
317 313 299 296 296 277 276 282 280 278 274 270 280 286 290 291 293 296 296 290 282 281 295 305 316 317 313 310 317 312 308 305 303 306 312 313 312 312 312 311 311 311 310 309
326 326 320 316 314 309 292 283 269 269 275 270 268 276 282 289 291 289 291 294 294 290 295 305 317 307 303 306 312 311 305 300 301 302 303 304 305 307 307 309 309 309 307 305
320 323 324 325 323 318 316 312 288 279 285 282 278 279 285 291 292 291 279 273 289 302 310 301 297 298 305 311 314 310 304 301 296 294 292 294 296 298 300 304 303 303 302 300
324 327 328 327 315 313 324 318 300 285 280 281 280 279 278 282 284 286 294 290 289 299 308 295 297 304 311 319 313 302 298 297 295 291 287 287 289 290 294 298 299 301 301 299
329 331 322 323 339 332 315 309 302 292 282 282 279 275 274 285 291 284 281 298 306 306 305 299 305 309 316 323 306 296 292 291 290 289 289 289 288 290 291 293 296 298 297 297
310 302 305 317 309 294 291 304 311 305 302 302 302 298 287 274 278 292 293 293 303 312 314 311 313 316 319 308 299 292 288 283 282 286 285 290 290 290 288 287 289 293 294 293
304 299 291 278 276 287 301 307 306 305 307 308 308 307 306 303 298 301 302 301 300 308 313 308 305 307 306 301 296 294 290 291 296 295 289 288 286 286 286 286 287 287 287 288
326 320 319 316 313 310 304 298 295 298 298 293 299 305 306 306 305 304 303 304 302 302 301 301 300 298 297 294 291 289 288 286 284 284 285 285 284 283 283 284 285 283 284 285
Height
1489 1486 1487 1487 1488 1489 1490 1487 1486 1479 1477 1475 1476 1476 1476 1476 1475 1474 1474 1473 1472 1471 1470 1469 1468 1467 1466 1465 1464 1463 1463 1463 1463 1463 1463 1463 1463 1463 1463 1463 1463 1464 1464 1464
1489 1485 1485 1485 1483 1484 1485 1484 1483 1480 1478 1475 1474 1474 1474 1474 1473 1473 1472 1471 1471 1470 1469 1468 1466 1465 1464 1463 1462 1461 1460 1460 1459 1459 1459 1459 1459 1459 1459 1459 1459 1459 1459 1460
1487 1486 1485 1485 1479 1479 1480 1479 1479 1478 1475 1473 1473 1473 1473 1472 1472 1471 1471 1470 1469 1469 1467 1466 1465 1463 1462 1461 1459 1458 1457 1457 1456 1456 1455 1455 1455 1455 1454 1454 1454 1454 1455 1455
1487 1487 1488 1475 1472 1473 1475 1476 1476 1474 1472 1472 1473 1472 1471 1471 1470 1469 1469 1468 1467 1466 1465 1464 1463 1461 1460 1458 1457 1456 1454 1454 1453 1452 1452 1451 1451 1451 1450 1450 1450 1450 1450 1450
1487 1485 1477 1471 1473 1475 1476 1475 1473 1472 1471 1471 1471 1470 1469 1469 1468 1468 1467 1466 1465 1464 1463 1462 1460 1459 1457 1456 1455 1453 1452 1451 1450 1449 1448 1448 1447 1447 1447 1446 1446 1446 1446 1446
1484 1484 1480 1473 1473 1471 1474 1475 1470 1470 1470 1470 1470 1471 1469 1467 1466 1466 1465 1464 1463 1462 1461 1459 1458 1457 1455 1454 1452 1451 1450 1448 1447 1446 1446 1445 1444 1444 1443 1443 1442 1442 1441 1441
1485 1482 1477 1474 1472 1472 1478 1473 1469 1468 1468 1468 1469 1470 1468 1466 1465 1464 1463 1462 1461 1460 1459 1458 1456 1455 1453 1451 1450 1449 1447 1446 1445 1444 1443 1442 1441 1440 1439 1439 1438 1438 1437 1437
1482 1481 1478 1474 1473 1474 1472 1469 1468 1467 1467 1467 1467 1466 1465 1464 1463 1462 1461 1460 1459 1458 1456 1456 1454 1453 1451 1449 1448 1446 1445 1443 1442 1441 1440 1439 1438 1437 1436 1435 1434 1434 1433 1433
1477 1475 1471 1470 1469 1468 1468 1467 1466 1466 1465 1465 1464 1464 1463 1462 1461 1460 1459 1458 1457 1456 1454 1453 1452 1450 1448 1447 1446 1444 1442 1441 1440 1438 1437 1436 1435 1434 1433 1432 1432 1431 1430 1429
1473 1469 1467 1467 1467 1466 1466 1465 1465 1464 1464 1463 1462 1462 1461 1460 1459 1458 1457 1456 1455 1454 1452 1451 1450 1448 1447 1445 1443 1442 1440 1439 1437 1436 1435 1434 1433 1432 1431 1430 1429 1428 1427 1427
1471 1468 1466 1464 1464 1464 1464 1463 1463 1462 1462 1461 1460 1460 1459 1458 1457 1457 1456 1455 1453 1452 1450 1449 1447 1446 1445 1443 1441 1440 1438 1437 1435 1434 1433 1431 1430 1430 1429 1428 1427 1426 1425 1424
1466 1464 1464 1462 1461 1461 1461 1460 1460 1459 1459 1459 1458 1458 1457 1456 1456 1455 1454 1453 1451 1450 1448 1447 1445 1444 1442 1441 1439 1438 1436 1435 1433 1432 1431 1429 1428 1427 1426 1426 1424 1423 1423 1422
1462 1461 1461 1460 1460 1459 1458 1458 1457 1457 1456 1456 1456 1456 1455 1454 1454 1453 1452 1450 1449 1448 1446 1444 1443 1441 1440 1439 1437 1436 1434 1433 1431 1430 1429 1427 1426 1425 1423 1422 1421 1420 1419 1418
1459 1459 1458 1458 1458 1457 1456 1456 1455 1455 1455 1455 1454 1454 1453 1452 1451 1450 1449 1448 1447 1445 1443 1442 1440 1439 1438 1436 1435 1433 1432 1431 1429 1428 1427 1426 1424 1423 1421 1419 1418 1416 1416 1415
1457 1457 1456 1455 1455 1455 1454 1454 1453 1453 1453 1452 1452 1452 1451 1450 1449 1448 1447 1445 1444 1442 1441 1439 1438 1436 1435 1434 1432 1431 1430 1428 1427 1426 1425 1423 1422 1421 1419 1418 1416 1414 1413 1412
1454 1454 1453 1453 1452 1452 1452 1451 1451 1451 1450 1450 1449 1449 1448 1447 1446 1445 1444 1442 1441 1439 1438 1436 1435 1434 1432 1431 1430 1428 1427 1426 1425 1424 1423 1421 1420 1418 1417 1415 1414 1412 1411 1409
1452 1451 1451 1450 1450 1450 1449 1449 1449 1449 1448 1448 1447 1446 1445 1444 1443 1442 1441 1439 1438 1437 1435 1434 1433 1431 1430 1429 1427 1426 1425 1424 1423 1422 1420 1419 1418 1416 1415 1413 1411 1410 1408 1407
1449 1449 1448 1448 1447 1447 1447 1447 1447 1446 1446 1445 1444 1443 1442 1441 1440 1439 1437 1436 1435 1434 1433 1431 1430 1429 1427 1426 1425 1424 1423 1421 1420 1419 1418 1417 1415 1414 1413 1411 1409 1407 1405 1404
1447 1446 1446 1446 1445 1445 1444 1444 1444 1443 1443 1442 1441 1440 1439 1438 1437 1436 1434 1433 1431 1430 1429 1428 1427 1426 1425 1424 1423 1421 1420 1419 1418 1417 1416 1415 1413 1412 1410 1409 1407 1405 1403 1401
1445 1444 1444 1443 1443 1442 1442 1441 1441 1441 1440 1439 1438 1437 1436 1435 1434 1432 1431 1430 1429 1428 1426 1425 1424 1423 1422 1421 1420 1419 1418 1417 1416 1414 1413 1412 1411 1409 1408 1406 1404 1402 1400 1399
1443 1442 1441 1441 1440 1440 1439 1439 1438 1438 1437 1436 1435 1434 1433 1432 1431 1429 1428 1426 1426 1425 1424 1423 1421 1420 1419 1418 1417 1416 1415 1414 1413 1412 1411 1409 1408 1406 1405 1403 1402 1400 1398 1396
1441 1440 1439 1439 1438 1437 1437 1437 1436 1435 1434 1433 1432 1431 1430 1428 1427 1426 1425 1425 1423 1422 1421 1420 1419 1418 1417 1416 1415 1413 1412 1411 1410 1409 1408 1407 1405 1404 1402 1401 1399 1397 1396 1394
1439 1439 1438 1437 1436 1435 1434 1434 1433 1432 1431 1430 1429 1428 1427 1426 1425 1424 1422 1422 1420 1419 1418 1417 1416 1415 1414 1413 1412 1410 1409 1408 1407 1406 1405 1404 1402 1401 1400 1398 1396 1394 1393 1391
1438 1437 1436 1435 1434 1433 1432 1432 1431 1430 1429 1428 1427 1426 1425 1423 1422 1421 1420 1419 1418 1417 1415 1414 1413 1412 1411 1410 1408 1407 1406 1405 1404 1403 1402 1401 1399 1398 1397 1395 1393 1392 1390 1388
1436 1435 1434 1433 1432 1431 1430 1429 1428 1427 1426 1425 1424 1423 1422 1421 1420 1418 1417 1416 1415 1414 1412 1411 1410 1409 1407 1406 1405 1404 1403 1401 1400 1399 1398 1397 1396 1395 1393 1392 1390 1389 1387 1386
1434 1433 1432 1431 1430 1429 1428 1427 1426 1425 1424 1422 1421 1420 1419 1418 1417 1415 1414 1413 1412 1411 1409 1408 1406 1405 1404 1402 1401 1400 1399 1398 1397 1396 1395 1393 1392 1391 1390 1388 1387 1385 1384 1383
1432 1431 1430 1429 1428 1427 1426 1425 1424 1423 1421 1420 1418 1418 1416 1415 1414 1412 1411 1410 1408 1407 1406 1404 1403 1402 1400 1399 1398 1396 1395 1394 1393 1392 1391 1390 1388 1387 1386 1384 1383 1382 1380 1379